Regional Weather Roundup
Issued by NWS

Home | Current Version | Previous Version | Graphics & Text | Print | Product List | Glossary On
Versions: 1 2 3 4 5 6 7 8 9 10 11 12 13 14 15 16 17 18 19 20 21 22 23 24 25 26 27 28 29 30 31 32 33 34 35 36 37 38 39 40 41 42 43 44 45 46 47 48 49 50
564
ASUS45 KPSR 282110
RWRAZ

ARIZONA HOURLY REGIONAL WEATHER ROUNDUP
NATIONAL WEATHER SERVICE PHOENIX AZ
200 PM MST THU APR 28 2016

NOTE: FAIR INDICATES FEW OR NO CLOUDS BELOW 12,000 FEET WITH NO
SIGNIFICANT WEATHER AND/OR OBSTRUCTIONS TO VISIBILITY.

AZZ001>003-036-282200-
NORTHWEST ARIZONA

CITY           SKY/WX    TMP DP  RH WIND       PRES   REMARKS
BULLHEAD CITY  FAIR      68  45  42 SW6       29.73R
KINGMAN        CLOUDY    54  42  64 SW8       29.76R
$$

AZZ004>008-015-016-018-282200-
NORTH CENTRAL ARIZONA

CITY           SKY/WX    TMP DP  RH WIND       PRES   REMARKS
GRAND CANYON   CLOUDY    42  36  79 S9        29.78S
WILLIAMS       CLOUDY    43  30  61 SW14      29.86R
PRESCOTT       CLOUDY    49  36  61 SE8       29.78R
FLAGSTAFF      PTSUNNY   43  27  53 SW18G28   29.79R
PAYSON         FAIR      59  16  18 SW14G23   29.81R
PAGE           FAIR      54  39  57 VRB7      29.71S
$$

AZZ009>014-017-282200-
NORTHEAST ARIZONA

CITY           SKY/WX    TMP DP  RH WIND       PRES   REMARKS
WINSLOW        FAIR      59  23  25 S24G36    29.73R
SAINT JOHNS    FAIR      66   4   8 SW35G46   29.72R
WINDOW ROCK    FAIR      60   9  13 S28G41    29.74R
SHOW LOW       PTSUNNY   54  16  22 SW31G39   29.78R
$$

AZZ023-282200-
GREATER PHOENIX AREA

CITY           SKY/WX    TMP DP  RH WIND       PRES   REMARKS
PHOENIX        FAIR      75  18  11 W20G26    29.71S
BUCKEYE        FAIR      72  21  15 SW14G21   29.73S
GLENDALE       MOSUNNY   73  23  15 S1G23     29.73S
LUKE AFB       FAIR      73  23  15 S15G21    29.70F
DEER VALLEY    FAIR      71  19  14 SW8       29.71F
SCOTTSDALE     FAIR      72  12  10 SW12G26   29.73S
MESA-FALCON    MOSUNNY  N/A N/A N/A S17G25    29.69
MESA-GATEWAY   MOSUNNY   73  25  16 W12G23    29.73S
CHANDLER       MOSUNNY   73  21  14 SW17G29   29.71F
$$

AZZ027-028-282200-
SOUTHWEST MARICOPA COUNTY AND PINAL COUNTY

CITY           SKY/WX    TMP DP  RH WIND       PRES   REMARKS
CASA GRANDE    FAIR      73  27  17 W17       29.73S
GILA BEND      SUNNY     72  28  19 SW15G22   29.72S
$$

AZZ503-504-507>509-282200-
SOUTHEAST ARIZONA

CITY           SKY/WX    TMP DP  RH WIND       PRES   REMARKS
TUCSON         FAIR      80  17   9 W28G36    29.71S
DAVIS-MONTHAN  FAIR      79  19  11 SW17G33   29.69F
RYAN FIELD     SUNNY     81  28  15 SW16G30   29.71S
NOGALES        FAIR      75  27  17 SW26G41   29.76F
SIERRA VISTA   FAIR      74  11   8 S25G44    29.77S
DOUGLAS        FAIR      77  18  11 SW30G38   29.76F
SAFFORD        FAIR      82  11   7 SW15G22   29.64F
$$

AZZ020-021-025-026-031-282200-
SOUTHWEST ARIZONA

CITY           SKY/WX    TMP DP  RH WIND       PRES   REMARKS
YUMA           FAIR      75  37  25 W15       29.75S
$$

CAZ031-033-041-043-047-048-061-282200-
SOUTHERN CALIFORNIA

CITY           SKY/WX    TMP DP  RH WIND       PRES   REMARKS
DOWNTOWN L.A.  FAIR      68  43  40 VRB3      29.84S
L.A. AIRPORT   FAIR      65  46  50 W12       29.86F
SAN DIEGO      PTSUNNY   64  47  53 W9        29.93R
BURBANK        FAIR      68  39  34 S13       29.83R
ONTARIO        PTSUNNY   65  42  43 VRB6      29.84F
RIVERSIDE      PTSUNNY   68  42  38 NW8       29.84S
PALM SPRINGS   PTSUNNY   78  38  23 NW23G30   29.73S
EL CENTRO NAS  FAIR      76  37  24 W24G33    29.76F
IMPERIAL       PTSUNNY   76  38  25 W14G30    29.74S
BLYTHE         FAIR      74  39  28 SW9       29.72S
NEEDLES        LGT RAIN  70  44  39 S8        29.70S
$$

NVZ020-UTZ003-282200-
SOUTHERN NEVADA-UTAH

CITY           SKY/WX    TMP DP  RH WIND       PRES   REMARKS
LAS VEGAS      PTSUNNY   66  42  41 E10       29.65S
SALT LAKE CITY PTSUNNY   56  34  43 VRB5      29.74R
$$

NMZ009-TXZ055-282200-
NEW MEXICO-WEST TEXAS

CITY           SKY/WX    TMP DP  RH WIND       PRES   REMARKS
ALBUQUERQUE    MOSUNNY   73  12   9 S21G35    29.72F
EL PASO        FAIR      81  12   7 W12G24    29.74F
$$


........................KEY........................
SKY/WX - SKY CONDITION/WEATHER
TMP    - TEMPERATURE IN FAHRENHEIT
DP     - DEW POINT IN FAHRENHEIT
RH     - RELATIVE HUMIDITY IN PERCENT
WIND   - DIRECTION AND SPEED IN MILES PER HOUR (MPH)
VRB    - VARIABLE WIND DIRECTION
PRES   - MEAN SEA LEVEL PRESSURE IN INCHES OF MERCURY
         F - FALLING PRESSURE   R - RISING PRESSURE
         S - STEADY PRESSURE
VSB    - VISIBILITY IN MILES
HX     - HEAT INDEX IN FAHRENHEIT
WCI    - WIND CHILL INDEX IN FAHRENHEIT
TC     - TEMPERATURE IN CELSIUS WHICH IS ALSO KNOWN AS
         TEMPERATURE IN CENTIGRADE
AFB    - AIR FORCE BASE
         LUKE AFB IS LUKE AIR FORCE BASE
         DAVIS-MONTHAN IS DAVIS-MONTHAN AIR FORCE BASE
NAS    - NAVAL AIR STATION
         EL CENTRO NAS IS EL CENTRO NAVAL AIR STATION
N/A    - NOT AVAILABLE





USA.gov is the U.S. government's official web portal to all federal, state and local government web resources and services.